This is the latest recevied weather packets stored in our database for station/object W6MAF. If no packets are shown the sender has not sent any weather packets the latest 10 day(s).
| Time | Temp. | Humidity | Pressure | Rain* | Wind** | Luminosity | Snow |
|---|---|---|---|---|---|---|---|
| 1777618622 | 11.67° C | 83% | - | 0 mm | 4.47 m/s, 217° | - | - |
| 1777618324 | 11.67° C | 84% | - | 0 mm | 3.13 m/s, 246° | - | - |
| 1777618059 | 11.67° C | 84% | - | 0 mm | 3.58 m/s, 226° | - | - |
| 1777618026 | 11.67° C | 84% | - | 0 mm | 3.58 m/s, 226° | - | - |
| 1777617729 | 11.67° C | 84% | - | 0 mm | 3.13 m/s, 242° | - | - |
| 1777617428 | 11.67° C | 85% | - | 0 mm | 2.68 m/s, 203° | - | - |
| 1777617130 | 11.67° C | 86% | - | 0 mm | 2.68 m/s, 207° | - | - |
| 1777616832 | 11.67° C | 87% | - | 0 mm | 2.68 m/s, 198° | - | - |
| 1777616535 | 11.67° C | 87% | - | 0 mm | 4.02 m/s, 193° | - | - |
| 1777616237 | 11.67° C | 87% | - | 0 mm | 4.47 m/s, 210° | - | - |
| 1777616051 | 11.67° C | 87% | - | 0 mm | 4.47 m/s, 215° | - | - |
| 1777615939 | 11.67° C | 87% | - | 0 mm | 4.47 m/s, 215° | - | - |
| 1777615639 | 11.67° C | 86% | - | 0 mm | 4.47 m/s, 228° | - | - |
| 1777615341 | 11.67° C | 85% | - | 0 mm | 4.47 m/s, 195° | - | - |
| 1777615043 | 11.67° C | 84% | - | 0 mm | 4.92 m/s, 211° | - | - |
| 1777614745 | 12.22° C | 83% | - | 0 mm | 4.02 m/s, 224° | - | - |
| 1777614448 | 12.22° C | 82% | - | 0 mm | 4.47 m/s, 214° | - | - |
| 1777614150 | 12.22° C | 82% | - | 0 mm | 4.47 m/s, 246° | - | - |
| 1777613849 | 12.22° C | 82% | - | 0 mm | 4.92 m/s, 228° | - | - |
| 1777613551 | 12.22° C | 81% | - | 0 mm | 4.92 m/s, 232° | - | - |
| 1777613254 | 12.22° C | 81% | - | 0 mm | 5.36 m/s, 235° | - | - |
| 1777612956 | 12.22° C | 81% | - | 0 mm | 5.36 m/s, 226° | - | - |
| 1777612658 | 12.22° C | 80% | - | 0 mm | 5.36 m/s, 238° | - | - |
| 1777612361 | 12.22° C | 80% | - | 0 mm | 5.81 m/s, 225° | - | - |
| 1777612060 | 12.22° C | 79% | - | 0 mm | 6.26 m/s, 248° | - | - |
* Rain latest hour (hover to see other rain measurements)
** Current wind speed in m/s (hover to see current wind gust speed)